Regional Weather Roundup
Issued by NWS Sterling, VA

Home | Current Version | Previous Version | Graphics & Text | Print | Product List | Glossary On
Versions: 1 2 3 4 5 6 7 8 9 10 11 12 13 14 15 16 17 18 19 20 21 22 23 24 25 26 27 28 29 30 31 32 33 34 35 36 37 38 39 40 41 42 43 44 45 46 47 48 49 50
000
ASUS41 KLWX 030510
RWRLWX

REGIONAL WEATHER ROUNDUP
NATIONAL WEATHER SERVICE BALTIMORE MD/WASHINGTON DC
100 AM EDT THU SEP 03 2015

Note: "FAIR" indicates few or no clouds below 12,000 feet
with no significant weather and/or obstructions to visibility.
 TC=TEMPERATURE CELSIUS

 * =Non NWS site. Station does not report precipitation (e.g. rain,
    snow, etc.), thunder, or fog.

DCZ001-MDZ009-015-VAZ040>042-051-053>054-030600-
WASHINGTON METRO

CITY           SKY/WX    TMP DP  RH WIND       PRES   REMARKS
WASHINGTON NAT CLEAR     75  69  81 W7        29.95S
DULLES         CLEAR     71  68  90 CALM      29.96S
ANDREWS AFB    CLEAR     74  69  82 W8        29.94S
FT BELVOIR     CLEAR     70  68  94 CALM      29.95S
QUANTICO       CLEAR     73  66  78 NW6       29.96R
COLLEGE PARK*  CLEAR     75  70  83 CALM      29.94S
LEESBURG*      CLEAR     73  70  88 W7        29.97S
MANASSAS*      CLEAR     70  70 100 CALM      29.96S
GAITHERSBURG*  CLEAR     72  66  83 CALM      29.99S

$$

MDZ006>007-011-014-030600-
BALTIMORE METRO

CITY           SKY/WX    TMP DP  RH WIND       PRES   REMARKS
BWI AIRPORT    CLEAR     73  67  81 SW3       29.92F
MD SCIENCE CTR   N/A     76  67  73 MISG      29.93S
ANNAPOLIS      CLEAR     77  71  82 NW5       29.92S
FORT MEADE*    CLEAR     68  64  88 CALM      29.95F

$$

MDZ012-015-019>023-030600-
MARYLAND EASTERN SHORE

CITY           SKY/WX    TMP DP  RH WIND       PRES   REMARKS
OCEAN CITY     MOCLDY    76  72  87 W5        29.91F
SALISBURY      CLEAR     74  73  97 SW3       29.92S FOG
BAY BRIDGE AP*   N/A     77  68  73 W7        29.92F
CAMBRIDGE*     CLEAR     73  70  88 CALM      29.92S

$$

MDZ017>025-030600-
SOUTHERN MARYLAND

CITY           SKY/WX    TMP DP  RH WIND       PRES   REMARKS
PATUXENT RIVER CLEAR     74  66  76 W7        29.93F
ST INIGOES     CLEAR     75  70  84 W5        29.93F
LEONARDTOWN*   NOT AVBL

$$

MDZ003>005-030600-
NORTH CENTRAL MARYLAND

CITY           SKY/WX    TMP DP  RH WIND       PRES   REMARKS
FREDERICK*     FOG       68  68 100 CALM      29.97F VSB 1/2
HAGERSTOWN APT CLEAR     72  68  87 CALM      29.97F FOG
WESTMINSTER*   CLEAR     70  66  88 CALM      29.96S

$$

MDZ501>502-030600-
WESTERN MARYLAND

CITY           SKY/WX    TMP DP  RH WIND       PRES   REMARKS
OAKLAND*       CLEAR     63  61  94 SW5       30.12F
CUMBERLAND*    CLOUDY    68  68 100 CALM      30.05S VSB<1/4

$$

VAZ025>031-030600-
SHENANDOAH VALLEY

CITY           SKY/WX    TMP DP  RH WIND       PRES   REMARKS
WINCHESTER*    PTCLDY    70  66  88 SW3       29.99S
FRONT ROYAL*   FAIR      66  64  94 SW6       29.99S
LURAY*         FOG       63  63 100 CALM      30.02S VSB 3/4
NEW MARKET*    FAIR      64  64 100 CALM      30.01S
STAUNTON*      CLEAR     66  63  92 W3        30.05F FOG
WAYNESBORO*    FAIR      65  64  94 CALM      30.05F

$$

WVZ021-048>050-054>055-030600-
EASTERN WEST VIRGINIA PANHANDLE

CITY           SKY/WX    TMP DP  RH WIND       PRES   REMARKS
MARTINSBURG    PTCLDY    67  66  97 CALM      29.98S FOG
PETERSBURG*    CLOUDY    64  64  99 CALM      30.04S FOG

$$

VAZ036>039-050-030600-
CENTRAL FOOTHILLS

CITY           SKY/WX    TMP DP  RH WIND       PRES   REMARKS
CHARLOTTESVILL CLEAR     68  65  90 CALM      29.99S
CULPEPER*      CLEAR     65  65  98 CALM      29.98F
ORANGE*        CLEAR     70  66  88 S5        29.99F
GORDONSVILLE*  FAIR      65  64  97 CALM      29.97F
WARRENTON*     FAIR      68  67  96 CALM      29.96F

$$

VAZ055>057-030600-
NORTH AND CENTRAL PIEDMONT

CITY           SKY/WX    TMP DP  RH WIND       PRES   REMARKS
FREDERICKSBRG* CLEAR     73  69  85 W5        29.95F
STAFFORD*      CLEAR     69  66  89 W3        30.00F

$$

NCZ024-NYZ072-PAZ021-071-VAZ022-071-030600-
OTHER REGIONAL OBSERVATIONS

CITY           SKY/WX    TMP DP  RH WIND       PRES   REMARKS
NEW YORK CITY  CLEAR     78  70  76 CALM      29.90F
PHILADELPHIA   CLEAR     77  70  79 W7        29.91F
PITTSBURGH     MOCLDY    73  66  78 CALM      30.01S
ROANOKE        PTCLDY    70  64  81 CALM      30.07S
RICHMOND       PTCLDY    72  68  87 W5        29.97S
RALEIGH        MOCLDY    72  70  93 E5        29.99F

$$

ANZ530>537-030600-
MARINE OBSERVATIONS

STATION/POSITION TIME  TEMP    WIND        PRES
                       AIR SEA DIR/SP/G
                 (UTC) (F)     (DEG/KT/KT) (MB)
THOMAS PT LIGHT  0500   78 81  290/  9/ 10 1013.6F
BALT KEY BRIDGE  0400   77     230/  9/ 11 1013.2S
COVE POINT       0400   76     280/ 12/ 15 1014.2S
LEWISETTA        0400   75 81  310/  5/  5 1013.4S
SOLOMONS ISLAND  0400      81                N/A
PINEY POINT      0405          330/ 14/ 15   N/A

$$



USA.gov is the U.S. government's official web portal to all federal, state and local government web resources and services.